Location: Chandolas
(44.4033°N, 4.2533°E)
Time: 08:59:19
(UTC+00:00)

Cosmos 2369 - Pass Details

Date: 27 February 2020
Orbit: 841 x 855 km, 71.0° (Epoch: 07 April)

Event Time Altitude Azimuth Distance (km) Brightness Sun altitude
Rises 04:51:32 0° 342° (NNW) 3,420 6.7 -17.4°
Reaches altitude 10° 04:54:28 10° 355° (N) 2,479 6.1 -16.9°
Maximum altitude 04:59:05 25° 50° (NE) 1,654 5.8 -16.1°
Drops below altitude 10° 05:03:39 10° 104° (ESE) 2,461 7.3 -15.3°
Sets 05:06:32 0° 118° (ESE) 3,390 7.9 -14.8°
